Time,TemperatureF,DewpointF,PressureIn,WindDirection,WindDirectionDegrees,WindSpeedMPH,WindSpeedGustMPH,Humidity,HourlyPrecipIn,Conditions,Clouds,dailyrainin,SoftwareType,DateUTC
2013-01-11 00:02:00,49.0,30.0,29.88,South,177,0.0,6.0,47,0.00,,,0.00,,2013-01-11 07:02:00,
2013-01-11 00:12:00,49.0,30.0,29.88,South,177,0.0,6.0,47,0.00,,,0.00,,2013-01-11 07:12:00,
2013-01-11 00:22:00,48.0,29.0,29.87,SSE,157,0.0,6.0,47,0.00,,,0.00,,2013-01-11 07:22:00,
2013-01-11 00:32:00,48.0,28.0,29.86,SSE,156,0.0,4.0,45,0.00,,,0.00,,2013-01-11 07:32:00,
2013-01-11 00:42:00,48.0,28.0,29.85,SSE,158,0.0,5.0,45,0.00,,,0.00,,2013-01-11 07:42:00,
2013-01-11 00:52:00,48.0,28.0,29.85,SSE,158,0.0,5.0,45,0.00,,,0.00,,2013-01-11 07:52:00,
2013-01-11 01:02:00,47.0,27.0,29.85,South,190,2.0,8.0,46,0.00,,,0.00,,2013-01-11 08:02:00,
2013-01-11 01:12:00,46.0,27.0,29.85,South,190,0.0,0.0,47,0.00,,,0.00,,2013-01-11 08:12:00,
2013-01-11 01:22:00,46.0,27.0,29.85,South,190,0.0,0.0,47,0.00,,,0.00,,2013-01-11 08:22:00,
2013-01-11 01:32:00,45.0,27.0,29.85,South,190,0.0,0.0,49,0.00,,,0.00,,2013-01-11 08:32:00,
2013-01-11 01:42:00,45.0,27.0,29.85,South,190,0.0,0.0,49,0.00,,,0.00,,2013-01-11 08:42:00,
2013-01-11 01:52:00,44.0,27.0,29.85,South,190,0.0,1.0,50,0.00,,,0.00,,2013-01-11 08:52:00,
2013-01-11 02:02:00,44.0,27.0,29.85,South,190,0.0,0.0,50,0.00,,,0.00,,2013-01-11 09:02:00,
2013-01-11 02:12:00,44.0,27.0,29.85,South,190,0.0,0.0,50,0.00,,,0.00,,2013-01-11 09:12:00,
2013-01-11 02:22:00,42.0,26.0,29.85,South,188,0.0,2.0,53,0.00,,,0.00,,2013-01-11 09:22:00,
2013-01-11 02:32:00,45.0,27.0,29.84,South,186,0.0,5.0,49,0.00,,,0.00,,2013-01-11 09:32:00,
2013-01-11 02:42:00,45.0,27.0,29.84,South,186,0.0,5.0,49,0.00,,,0.00,,2013-01-11 09:42:00,
2013-01-11 02:52:00,45.0,27.0,29.84,South,185,0.0,4.0,49,0.00,,,0.00,,2013-01-11 09:52:00,
2013-01-11 03:02:00,45.0,27.0,29.83,South,191,0.0,4.0,49,0.00,,,0.00,,2013-01-11 10:02:00,
2013-01-11 03:12:00,45.0,27.0,29.83,South,191,0.0,4.0,49,0.00,,,0.00,,2013-01-11 10:12:00,
2013-01-11 03:22:00,46.0,27.0,29.83,South,176,1.0,4.0,47,0.00,,,0.00,,2013-01-11 10:22:00,
2013-01-11 03:32:00,45.0,27.0,29.83,SSE,157,0.0,5.0,48,0.00,,,0.00,,2013-01-11 10:32:00,
2013-01-11 03:42:00,45.0,27.0,29.83,SSE,157,0.0,5.0,48,0.00,,,0.00,,2013-01-11 10:42:00,
2013-01-11 03:52:00,45.0,27.0,29.82,SSE,157,0.0,4.0,49,0.00,,,0.00,,2013-01-11 10:52:00,
2013-01-11 04:03:00,44.0,26.0,29.81,SSE,158,0.0,3.0,49,0.00,,,0.00,,2013-01-11 11:03:00,
2013-01-11 04:12:00,44.0,26.0,29.81,SSE,158,0.0,3.0,49,0.00,,,0.00,,2013-01-11 11:12:00,
2013-01-11 04:22:00,43.0,26.0,29.80,SSE,158,0.0,2.0,50,0.00,,,0.00,,2013-01-11 11:22:00,
2013-01-11 04:33:00,45.0,27.0,29.80,SSE,158,0.0,3.0,50,0.00,,,0.00,,2013-01-11 11:33:00,
2013-01-11 04:42:00,45.0,27.0,29.80,SSE,158,0.0,3.0,50,0.00,,,0.00,,2013-01-11 11:42:00,
2013-01-11 04:52:00,45.0,27.0,29.79,SSE,158,0.0,3.0,48,0.00,,,0.00,,2013-01-11 11:52:00,
2013-01-11 05:03:00,45.0,27.0,29.79,SSE,158,0.0,3.0,48,0.00,,,0.00,,2013-01-11 12:03:00,
2013-01-11 05:12:00,45.0,27.0,29.79,SSE,158,0.0,3.0,48,0.00,,,0.00,,2013-01-11 12:12:00,
2013-01-11 05:22:00,45.0,27.0,29.79,SSE,158,0.0,3.0,48,0.00,,,0.00,,2013-01-11 12:22:00,
2013-01-11 05:33:00,45.0,27.0,29.79,SSE,158,0.0,1.0,50,0.00,,,0.00,,2013-01-11 12:33:00,
2013-01-11 05:43:00,45.0,27.0,29.79,SSE,158,0.0,1.0,50,0.00,,,0.00,,2013-01-11 12:43:00,
2013-01-11 05:53:00,44.0,27.0,29.80,SSE,158,0.0,0.0,50,0.00,,,0.00,,2013-01-11 12:53:00,
2013-01-11 06:03:00,44.0,27.0,29.80,SSE,158,0.0,0.0,51,0.00,,,0.00,,2013-01-11 13:03:00,
2013-01-11 06:13:00,44.0,27.0,29.80,SSE,158,0.0,0.0,51,0.00,,,0.00,,2013-01-11 13:13:00,
2013-01-11 06:22:00,42.0,26.0,29.80,SSE,158,0.0,0.0,53,0.00,,,0.00,,2013-01-11 13:22:00,
2013-01-11 06:33:00,42.0,27.0,29.81,SSE,158,0.0,0.0,54,0.00,,,0.00,,2013-01-11 13:33:00,
2013-01-11 06:42:00,42.0,27.0,29.81,SSE,158,0.0,0.0,54,0.00,,,0.00,,2013-01-11 13:42:00,
2013-01-11 06:52:00,41.0,26.0,29.82,SSE,158,0.0,0.0,55,0.00,,,0.00,,2013-01-11 13:52:00,
2013-01-11 07:03:00,41.0,26.0,29.82,SSE,158,0.0,1.0,55,0.00,,,0.00,,2013-01-11 14:03:00,
2013-01-11 07:12:00,41.0,26.0,29.82,SSE,158,0.0,1.0,55,0.00,,,0.00,,2013-01-11 14:12:00,
2013-01-11 07:23:00,41.0,26.0,29.82,SSE,158,0.0,2.0,54,0.00,,,0.00,,2013-01-11 14:23:00,
2013-01-11 07:33:00,45.0,27.0,29.82,WSW,251,1.0,6.0,48,0.00,,,0.00,,2013-01-11 14:33:00,
2013-01-11 07:42:00,47.0,25.0,29.83,WNW,285,7.0,14.0,41,0.00,,,0.00,,2013-01-11 14:42:00,
2013-01-11 07:53:00,47.0,25.0,29.83,WNW,285,7.0,14.0,41,0.00,,,0.00,,2013-01-11 14:53:00,
2013-01-11 08:03:00,46.0,26.0,29.84,WSW,237,6.0,13.0,46,0.00,,,0.00,,2013-01-11 15:03:00,
2013-01-11 08:12:00,45.0,28.0,29.85,West,259,5.0,14.0,52,0.00,,,0.00,,2013-01-11 15:12:00,
2013-01-11 08:23:00,45.0,28.0,29.85,West,259,5.0,14.0,52,0.00,,,0.00,,2013-01-11 15:23:00,
2013-01-11 08:33:00,44.0,29.0,29.85,WSW,255,6.0,17.0,55,0.00,,,0.00,,2013-01-11 15:33:00,
2013-01-11 08:43:00,44.0,29.0,29.85,WSW,255,6.0,17.0,55,0.00,,,0.00,,2013-01-11 15:43:00,
2013-01-11 08:52:00,44.0,29.0,29.85,WSW,255,6.0,17.0,55,0.00,,,0.00,,2013-01-11 15:52:00,
2013-01-11 09:03:00,43.0,28.0,29.87,WNW,302,9.0,18.0,55,0.00,,,0.00,,2013-01-11 16:03:00,
2013-01-11 09:12:00,44.0,28.0,29.88,West,263,5.0,17.0,54,0.00,,,0.00,,2013-01-11 16:12:00,
2013-01-11 09:22:00,44.0,28.0,29.88,West,263,5.0,17.0,54,0.00,,,0.00,,2013-01-11 16:22:00,
2013-01-11 09:33:00,44.0,27.0,29.89,WNW,298,6.0,17.0,50,0.00,,,0.00,,2013-01-11 16:33:00,
2013-01-11 09:42:00,44.0,27.0,29.89,WNW,298,6.0,17.0,50,0.00,,,0.00,,2013-01-11 16:42:00,
2013-01-11 09:52:00,45.0,25.0,29.89,West,260,6.0,17.0,45,0.00,,,0.00,,2013-01-11 16:52:00,
2013-01-11 10:03:00,44.0,23.0,29.90,West,259,5.0,16.0,44,0.00,,,0.00,,2013-01-11 17:03:00,
2013-01-11 10:12:00,44.0,23.0,29.90,West,259,5.0,16.0,44,0.00,,,0.00,,2013-01-11 17:12:00,
2013-01-11 10:22:00,44.0,22.0,29.90,West,277,6.0,17.0,42,0.00,,,0.00,,2013-01-11 17:22:00,
2013-01-11 10:33:00,45.0,23.0,29.91,WSW,250,5.0,15.0,41,0.00,,,0.00,,2013-01-11 17:33:00,
2013-01-11 10:43:00,45.0,23.0,29.91,WSW,250,5.0,15.0,41,0.00,,,0.00,,2013-01-11 17:43:00,
2013-01-11 10:53:00,45.0,22.0,29.90,West,272,5.0,17.0,40,0.00,,,0.00,,2013-01-11 17:53:00,
2013-01-11 11:03:00,45.0,22.0,29.90,SSW,208,5.0,14.0,39,0.00,,,0.00,,2013-01-11 18:03:00,
2013-01-11 11:12:00,45.0,22.0,29.90,SSW,208,5.0,14.0,39,0.00,,,0.00,,2013-01-11 18:12:00,
2013-01-11 11:23:00,47.0,22.0,29.89,WNW,289,6.0,13.0,37,0.00,,,0.00,,2013-01-11 18:23:00,
2013-01-11 11:33:00,49.0,24.0,29.88,WNW,285,7.0,14.0,37,0.00,,,0.00,,2013-01-11 18:33:00,
2013-01-11 11:43:00,49.0,24.0,29.88,WNW,285,7.0,14.0,37,0.00,,,0.00,,2013-01-11 18:43:00,
2013-01-11 11:53:00,50.0,23.0,29.87,WNW,291,7.0,14.0,35,0.00,,,0.00,,2013-01-11 18:53:00,
2013-01-11 12:02:00,49.0,22.0,29.86,West,269,7.0,17.0,34,0.00,,,0.00,,2013-01-11 19:02:00,
2013-01-11 12:12:00,49.0,22.0,29.86,West,269,7.0,17.0,34,0.00,,,0.00,,2013-01-11 19:12:00,
2013-01-11 12:22:00,50.0,21.0,29.85,NW,315,8.0,17.0,32,0.00,,,0.00,,2013-01-11 19:22:00,
2013-01-11 12:32:00,51.0,21.0,29.83,NW,307,12.0,21.0,31,0.00,,,0.00,,2013-01-11 19:32:00,
2013-01-11 12:43:00,51.0,21.0,29.83,NW,307,12.0,21.0,31,0.00,,,0.00,,2013-01-11 19:43:00,
2013-01-11 12:53:00,51.0,21.0,29.82,WSW,245,8.0,18.0,31,0.00,,,0.00,,2013-01-11 19:53:00,
2013-01-11 13:03:00,51.0,21.0,29.81,West,260,7.0,20.0,31,0.00,,,0.00,,2013-01-11 20:03:00,
2013-01-11 13:12:00,51.0,21.0,29.81,West,260,7.0,20.0,31,0.00,,,0.00,,2013-01-11 20:12:00,
2013-01-11 13:22:00,50.0,21.0,29.79,West,272,10.0,23.0,32,0.00,,,0.00,,2013-01-11 20:22:00,
2013-01-11 13:33:00,51.0,21.0,29.79,West,260,8.0,22.0,31,0.00,,,0.00,,2013-01-11 20:33:00,
2013-01-11 13:43:00,51.0,21.0,29.79,West,260,8.0,22.0,31,0.00,,,0.00,,2013-01-11 20:43:00,
2013-01-11 13:52:00,51.0,21.0,29.79,WNW,285,7.0,19.0,31,0.00,,,0.00,,2013-01-11 20:52:00,
2013-01-11 14:03:00,51.0,21.0,29.79,NW,304,7.0,20.0,31,0.00,,,0.00,,2013-01-11 21:03:00,
2013-01-11 14:12:00,51.0,21.0,29.79,NW,304,7.0,20.0,31,0.00,,,0.00,,2013-01-11 21:12:00,
2013-01-11 14:23:00,51.0,21.0,29.80,WSW,243,9.0,22.0,31,0.00,,,0.00,,2013-01-11 21:23:00,
2013-01-11 14:33:00,51.0,21.0,29.80,WSW,256,6.0,26.0,31,0.00,,,0.00,,2013-01-11 21:33:00,
2013-01-11 14:42:00,51.0,21.0,29.80,WSW,256,6.0,26.0,31,0.00,,,0.00,,2013-01-11 21:42:00,
2013-01-11 14:52:00,51.0,21.0,29.80,WSW,258,7.0,18.0,30,0.00,,,0.00,,2013-01-11 21:52:00,
2013-01-11 15:02:00,50.0,21.0,29.80,NW,304,6.0,20.0,32,0.00,,,0.00,,2013-01-11 22:02:00,
2013-01-11 15:12:00,50.0,21.0,29.80,NW,304,6.0,20.0,32,0.00,,,0.00,,2013-01-11 22:12:00,
2013-01-11 15:22:00,51.0,21.0,29.81,WSW,257,9.0,18.0,30,0.00,,,0.00,,2013-01-11 22:22:00,
2013-01-11 15:33:00,50.0,21.0,29.81,West,264,8.0,21.0,31,0.00,,,0.00,,2013-01-11 22:33:00,
2013-01-11 15:42:00,50.0,21.0,29.81,West,264,8.0,21.0,31,0.00,,,0.00,,2013-01-11 22:42:00,
2013-01-11 15:52:00,50.0,21.0,29.81,WNW,292,10.0,19.0,31,0.00,,,0.00,,2013-01-11 22:52:00,
2013-01-11 16:02:00,50.0,21.0,29.81,West,278,6.0,16.0,31,0.00,,,0.00,,2013-01-11 23:02:00,
2013-01-11 16:13:00,50.0,21.0,29.81,West,278,6.0,16.0,31,0.00,,,0.00,,2013-01-11 23:13:00,
2013-01-11 16:22:00,49.0,19.0,29.81,WNW,285,7.0,17.0,30,0.00,,,0.00,,2013-01-11 23:22:00,
2013-01-11 16:32:00,49.0,19.0,29.82,WNW,302,5.0,13.0,30,0.00,,,0.00,,2013-01-11 23:32:00,
2013-01-11 16:43:00,49.0,19.0,29.82,WNW,302,5.0,13.0,30,0.00,,,0.00,,2013-01-11 23:43:00,
2013-01-11 16:53:00,48.0,18.0,29.82,WNW,285,5.0,15.0,30,0.00,,,0.00,,2013-01-11 23:53:00,
2013-01-11 17:02:00,47.0,17.0,29.82,West,259,5.0,14.0,30,0.00,,,0.00,,2013-01-12 00:02:00,
2013-01-11 17:12:00,46.0,16.0,29.83,West,260,3.0,11.0,30,0.00,,,0.00,,2013-01-12 00:12:00,
2013-01-11 17:23:00,46.0,16.0,29.83,West,260,3.0,11.0,30,0.00,,,0.00,,2013-01-12 00:23:00,
2013-01-11 17:32:00,46.0,16.0,29.83,West,260,3.0,11.0,30,0.00,,,0.00,,2013-01-12 00:32:00,
2013-01-11 17:42:00,46.0,16.0,29.83,West,260,3.0,11.0,30,0.00,,,0.00,,2013-01-12 00:42:00,
2013-01-11 17:52:00,44.0,15.0,29.83,WNW,297,3.0,14.0,30,0.00,,,0.00,,2013-01-12 00:52:00,
2013-01-11 18:02:00,43.0,14.0,29.84,WNW,294,1.0,7.0,30,0.00,,,0.00,,2013-01-12 01:02:00,
2013-01-11 18:12:00,43.0,14.0,29.84,WNW,294,1.0,7.0,30,0.00,,,0.00,,2013-01-12 01:12:00,
2013-01-11 18:22:00,43.0,14.0,29.85,WNW,292,0.0,4.0,30,0.00,,,0.00,,2013-01-12 01:22:00,
2013-01-11 18:33:00,42.0,13.0,29.85,WNW,291,0.0,1.0,30,0.00,,,0.00,,2013-01-12 01:33:00,
2013-01-11 18:43:00,42.0,13.0,29.85,WNW,291,0.0,1.0,30,0.00,,,0.00,,2013-01-12 01:43:00,
2013-01-11 18:52:00,42.0,13.0,29.85,NW,317,1.0,6.0,30,0.00,,,0.00,,2013-01-12 01:52:00,
2013-01-11 19:02:00,42.0,13.0,29.85,NW,322,4.0,8.0,30,0.00,,,0.00,,2013-01-12 02:02:00,
2013-01-11 19:12:00,42.0,13.0,29.85,NW,322,4.0,8.0,30,0.00,,,0.00,,2013-01-12 02:12:00,
2013-01-11 19:22:00,41.0,12.0,29.85,NW,325,1.0,6.0,30,0.00,,,0.00,,2013-01-12 02:22:00,
2013-01-11 19:32:00,40.0,12.0,29.85,NW,319,2.0,7.0,31,0.00,,,0.00,,2013-01-12 02:32:00,
2013-01-11 19:42:00,40.0,12.0,29.85,NW,319,2.0,7.0,31,0.00,,,0.00,,2013-01-12 02:42:00,
2013-01-11 19:53:00,40.0,12.0,29.85,NW,319,2.0,7.0,31,0.00,,,0.00,,2013-01-12 02:53:00,
2013-01-11 20:02:00,41.0,11.0,29.85,North,354,1.0,7.0,29,0.00,,,0.00,,2013-01-12 03:02:00,
2013-01-11 20:12:00,41.0,11.0,29.85,North,354,1.0,7.0,29,0.00,,,0.00,,2013-01-12 03:12:00,
2013-01-11 20:22:00,41.0,11.0,29.86,North,359,0.0,5.0,29,0.00,,,0.00,,2013-01-12 03:22:00,
2013-01-11 20:33:00,39.0,10.0,29.85,North,359,0.0,1.0,30,0.00,,,0.00,,2013-01-12 03:33:00,
2013-01-11 20:43:00,39.0,10.0,29.85,North,359,0.0,1.0,30,0.00,,,0.00,,2013-01-12 03:43:00,
2013-01-11 20:52:00,39.0,11.0,29.85,North,359,0.0,0.0,31,0.00,,,0.00,,2013-01-12 03:52:00,
2013-01-11 21:02:00,36.0,10.0,29.86,North,359,0.0,1.0,34,0.00,,,0.00,,2013-01-12 04:02:00,
2013-01-11 21:12:00,36.0,10.0,29.86,North,359,0.0,1.0,34,0.00,,,0.00,,2013-01-12 04:12:00,
2013-01-11 21:22:00,36.0,11.0,29.86,North,359,0.0,1.0,35,0.00,,,0.00,,2013-01-12 04:22:00,
2013-01-11 21:32:00,36.0,12.0,29.86,North,359,0.0,0.0,36,0.00,,,0.00,,2013-01-12 04:32:00,
2013-01-11 21:42:00,36.0,12.0,29.86,North,359,0.0,0.0,36,0.00,,,0.00,,2013-01-12 04:42:00,
2013-01-11 21:52:00,35.0,11.0,29.86,North,359,0.0,0.0,36,0.00,,,0.00,,2013-01-12 04:52:00,
2013-01-11 22:03:00,34.0,12.0,29.86,North,359,0.0,0.0,39,0.00,,,0.00,,2013-01-12 05:03:00,
2013-01-11 22:12:00,34.0,12.0,29.86,North,359,0.0,0.0,39,0.00,,,0.00,,2013-01-12 05:12:00,
2013-01-11 22:22:00,34.0,12.0,29.86,North,359,0.0,0.0,39,0.00,,,0.00,,2013-01-12 05:22:00,
2013-01-11 22:32:00,32.0,12.0,29.87,North,359,0.0,1.0,42,0.00,,,0.00,,2013-01-12 05:32:00,
2013-01-11 22:42:00,32.0,12.0,29.87,North,359,0.0,1.0,42,0.00,,,0.00,,2013-01-12 05:42:00,
2013-01-11 22:52:00,31.0,12.0,29.86,North,359,0.0,1.0,44,0.00,,,0.00,,2013-01-12 05:52:00,
2013-01-11 23:02:00,31.0,12.0,29.86,North,359,0.0,1.0,44,0.00,,,0.00,,2013-01-12 06:02:00,
2013-01-11 23:12:00,31.0,12.0,29.86,North,359,0.0,1.0,44,0.00,,,0.00,,2013-01-12 06:12:00,
2013-01-11 23:22:00,30.0,11.0,29.88,North,359,0.0,1.0,45,0.00,,,0.00,,2013-01-12 06:22:00,
2013-01-11 23:33:00,31.0,12.0,29.88,North,359,0.0,0.0,45,0.00,,,0.00,,2013-01-12 06:33:00,
2013-01-11 23:43:00,31.0,12.0,29.88,North,359,0.0,0.0,45,0.00,,,0.00,,2013-01-12 06:43:00,
2013-01-11 23:53:00,29.0,10.0,29.89,North,359,0.0,0.0,44,0.00,,,0.00,,2013-01-12 06:53:00,